Location: Ferchesar
(52.6477°N, 12.4298°E)
Time: 08:23:09
(UTC+01:00)

Tiros 1 despin weight - Pass Details

Date: 16 December 2021
Orbit: 592 x 641 km, 48.2° (Epoch: 19 January)

Event Time Altitude Azimuth Distance (km) Brightness Sun altitude
Rises 07:49:15 0° 194° (SSW) 2,882 ? -4.1°
Reaches altitude 10° 07:52:55 10° 164° (SSE) 1,968 ? -3.7°
Maximum altitude 07:54:40 12° 141° (SE) 1,827 ? -3.5°
Drops below altitude 10° 07:56:25 10° 118° (ESE) 1,960 ? -3.2°
Sets 08:00:03 0° 88° (E) 2,855 ? -2.8°
